EW9824 Weather Reports


Display with metric or nautical units.
time (UTC)temp
F
wind
direction
speed
MPH
gust
MPH
rain 1hr
in
rain 24hr
in
rain mn
in
humidity
%
barometer
mb
20260505204608 73 7 4.0 9.0 0.00 0.00 0.00 52 1016.5
20260505203032 73 2 5.0 10.0 0.00 0.00 0.00 53 1016.5
20260505201603 72 349 5.0 10.0 0.00 0.00 0.00 54 1016.6
20260505200146 72 359 4.0 9.0 0.00 0.00 0.00 54 1016.7
20260505194602 72 17 5.0 11.0 0.00 0.00 0.00 53 1016.8
20260505191605 71 40 4.0 11.0 0.00 0.00 0.00 53 1016.8
20260505190029 70 32 3.0 7.0 0.00 0.00 0.00 54 1016.9
20260505184530 69 17 4.0 10.0 0.00 0.00 0.00 56 1017.0
20260505183029 69 43 6.0 11.0 0.00 0.00 0.00 56 1017.1
20260505180029 67 12 6.0 11.0 0.00 0.00 0.00 57 1017.0
20260505174604 66 353 4.0 11.0 0.00 0.00 0.00 59 1016.9
20260505173029 65 333 3.0 8.0 0.00 0.00 0.00 60 1016.9
20260505171532 65 341 4.0 9.0 0.00 0.00 0.00 62 1016.9
20260505170028 64 351 3.0 8.0 0.00 0.00 0.00 63 1016.9
20260505163030 63 16 4.0 9.0 0.00 0.00 0.00 67 1016.8
20260505161531 62 34 5.0 11.0 0.00 0.00 0.00 69 1016.9
20260505153029 59 31 4.0 8.0 0.00 0.00 0.00 78 1016.9
20260505151603 57 27 3.0 6.0 0.00 0.00 0.00 87 1016.8
20260505130104 48 168 2.0 4.0 0.00 0.00 0.00 95 1015.7
20260505123031 48 168 2.0 5.0 0.00 0.00 0.00 95 1015.7
20260505121529 48 185 1.0 4.0 0.00 0.00 0.00 95 1015.7
20260505114528 48 176 2.0 4.0 0.00 0.00 0.00 95 1015.6
20260505113033 48 200 1.0 4.0 0.00 0.00 0.00 95 1015.5
20260505111645 48 175 2.0 4.0 0.00 0.00 0.00 94 1015.5
20260505101532 49 167 1.0 4.0 0.00 0.00 0.00 93 1015.1
20260505100037 49 139 0.0 3.0 0.00 0.00 0.00 92 1015.1
20260505094531 49 145 1.0 3.0 0.00 0.00 0.00 91 1015.0
20260505093033 49 137 1.0 3.0 0.00 0.00 0.00 90 1015.0
20260505091531 49 199 1.0 3.0 0.00 0.00 0.00 89 1014.9
20260505090030 50 175 1.0 4.0 0.00 0.00 0.00 88 1014.8
20260505084603 51 140 0.0 3.0 0.00 0.00 0.00 86 1014.8
20260505083030 52 153 1.0 4.0 0.00 0.00 0.00 83 1014.8
20260505081536 53 223 2.0 5.0 0.00 0.00 0.00 83 1014.8
20260505080104 53 170 3.0 6.0 0.00 0.00 0.00 83 1014.8
20260505074529 54 182 3.0 5.0 0.00 0.00 0.00 82 1014.7
20260505073031 54 172 2.0 5.0 0.00 0.00 0.00 81 1014.7
20260505063107 57 165 3.0 6.0 0.00 0.00 0.00 74 1014.7
20260505061533 59 147 2.0 4.0 0.00 0.00 0.00 69 1014.7
20260505060030 62 192 1.0 10.0 0.00 0.00 0.00 67 1014.8
20260505054531 63 267 6.0 13.0 0.00 0.00 0.00 66 1014.6
20260505053037 63 258 4.0 9.0 0.00 0.00 0.00 66 1014.6
20260505051530 62 236 5.0 13.0 0.00 0.00 0.00 66 1014.6
20260505041541 62 151 2.0 4.0 0.00 0.00 0.00 57 1014.1
20260505040044 64 224 2.0 6.0 0.00 0.00 0.00 53 1013.9
20260505033030 66 247 3.0 9.0 0.00 0.00 0.00 48 1013.4
20260505031528 67 238 4.0 10.0 0.00 0.00 0.00 47 1013.2
20260505030032 68 219 4.0 10.0 0.00 0.00 0.00 46 1013.1
20260505023031 71 230 3.0 9.0 0.00 0.00 0.00 43 1012.9
20260505021605 72 236 3.0 8.0 0.00 0.00 0.00 42 1012.8
20260505020034 73 251 4.0 12.0 0.00 0.00 0.00 41 1012.8
20260505013143 74 242 5.0 12.0 0.00 0.00 0.00 39 1012.6
20260505011530 75 253 6.0 17.0 0.00 0.00 0.00 37 1012.6
20260505010033 77 258 6.0 15.0 0.00 0.00 0.00 35 1012.6
20260505004646 79 245 5.0 11.0 0.00 0.00 0.00 33 1012.6
20260505001644 80 257 6.0 17.0 0.00 0.00 0.00 33 1012.5
20260505000108 80 242 6.0 14.0 0.00 0.00 0.00 32 1012.4
20260504233031 81 268 6.0 16.0 0.00 0.00 0.00 33 1012.3
20260504231530 81 256 6.0 15.0 0.00 0.00 0.00 32 1012.4
20260504230033 82 256 7.0 16.0 0.00 0.00 0.00 33 1012.4
20260504224531 82 268 6.0 13.0 0.00 0.00 0.00 32 1012.5
20260504223033 81 267 6.0 14.0 0.00 0.00 0.00 32 1012.6
20260504221532 82 260 8.0 17.0 0.00 0.00 0.00 31 1012.6
20260504220028 81 266 8.0 16.0 0.00 0.00 0.00 32 1012.6
20260504214530 82 267 7.0 18.0 0.00 0.00 0.00 31 1012.7
20260504213112 82 269 7.0 17.0 0.00 0.00 0.00 31 1012.7
20260504211532 82 268 5.0 14.0 0.00 0.00 0.00 32 1012.8
20260504210032 80 266 7.0 15.0 0.00 0.00 0.00 36 1012.9